Time,TemperatureF,DewpointF,PressureIn,WindDirection,WindDirectionDegrees,WindSpeedMPH,WindSpeedGustMPH,Humidity,HourlyPrecipIn,Conditions,Clouds,dailyrainin,SoftwareType,DateUTC
2013-07-25 00:04:00,61.2,34.7,23.62,North,5,0.0,0.0,37,0.20,,---,0.04,VWS V14.00,2013-07-25 07:04:00,
2013-07-25 00:09:00,60.4,34.7,23.62,WSW,257,0.0,0.0,38,0.28,,---,0.12,VWS V14.00,2013-07-25 07:09:00,
2013-07-25 00:14:00,60.1,35.1,23.62,WNW,297,0.0,2.2,39,0.28,,---,0.12,VWS V14.00,2013-07-25 07:14:00,
2013-07-25 00:19:00,59.7,34.7,23.59,NW,307,0.0,0.0,39,0.28,,---,0.12,VWS V14.00,2013-07-25 07:19:00,
2013-07-25 00:24:00,59.4,34.4,23.59,NW,307,0.0,0.0,39,0.28,,---,0.12,VWS V14.00,2013-07-25 07:24:00,
2013-07-25 00:29:00,59.2,34.9,23.59,North,350,0.0,0.0,40,0.28,,---,0.12,VWS V14.00,2013-07-25 07:29:00,
2013-07-25 00:34:00,59.4,35.1,23.59,North,350,0.0,0.0,40,0.28,,---,0.12,VWS V14.00,2013-07-25 07:34:00,
2013-07-25 00:40:00,59.4,35.1,23.59,North,350,0.0,0.0,40,0.28,,---,0.12,VWS V14.00,2013-07-25 07:40:00,
2013-07-25 00:45:00,59.4,35.1,23.59,North,350,0.0,0.0,40,0.24,,---,0.12,VWS V14.00,2013-07-25 07:45:00,
2013-07-25 00:50:00,59.2,35.5,23.59,North,350,0.0,0.0,41,0.24,,---,0.12,VWS V14.00,2013-07-25 07:50:00,
2013-07-25 00:55:00,59.0,35.3,23.59,North,350,0.0,0.0,41,0.20,,---,0.12,VWS V14.00,2013-07-25 07:55:00,
2013-07-25 01:00:00,58.8,35.2,23.59,North,350,0.0,0.0,41,0.12,,---,0.12,VWS V14.00,2013-07-25 08:00:00,
2013-07-25 01:05:00,58.6,35.0,23.59,North,350,0.0,0.0,41,0.08,,---,0.12,VWS V14.00,2013-07-25 08:05:00,
2013-07-25 01:10:00,58.5,35.5,23.59,North,350,0.0,0.0,42,0.00,,---,0.12,VWS V14.00,2013-07-25 08:10:00,
2013-07-25 01:15:00,58.5,35.5,23.59,NNE,21,0.0,0.0,42,0.00,,---,0.12,VWS V14.00,2013-07-25 08:15:00,
2013-07-25 01:20:00,58.5,36.1,23.59,ESE,114,2.7,2.7,43,0.00,,---,0.12,VWS V14.00,2013-07-25 08:20:00,
2013-07-25 01:26:00,58.5,36.1,23.59,ESE,111,3.6,4.0,43,0.00,,---,0.12,VWS V14.00,2013-07-25 08:26:00,
2013-07-25 01:31:00,58.6,36.8,23.59,East,100,0.0,0.0,44,0.00,,---,0.12,VWS V14.00,2013-07-25 08:31:00,
2013-07-25 01:36:00,58.8,37.0,23.59,East,100,0.0,0.0,44,0.00,,---,0.12,VWS V14.00,2013-07-25 08:36:00,
2013-07-25 01:42:00,59.0,37.1,23.59,North,0,0.0,0.0,44,0.00,,---,0.12,VWS V14.00,2013-07-25 08:42:00,
2013-07-25 01:47:00,59.2,37.3,23.62,NNW,334,0.0,3.1,44,0.00,,---,0.12,VWS V14.00,2013-07-25 08:47:00,
2013-07-25 01:52:00,59.4,37.5,23.62,NNW,334,0.0,0.0,44,0.00,,---,0.12,VWS V14.00,2013-07-25 08:52:00,
2013-07-25 01:57:00,59.5,38.2,23.62,NE,49,0.0,5.4,45,0.00,,---,0.12,VWS V14.00,2013-07-25 08:57:00,
2013-07-25 02:02:00,59.7,38.4,23.62,ESE,108,2.7,2.7,45,0.00,,---,0.12,VWS V14.00,2013-07-25 09:02:00,
2013-07-25 02:07:00,59.7,38.4,23.62,NNW,328,0.0,0.0,45,0.00,,---,0.12,VWS V14.00,2013-07-25 09:07:00,
2013-07-25 02:12:00,59.9,38.5,23.62,ESE,110,0.0,0.0,45,0.00,,---,0.12,VWS V14.00,2013-07-25 09:12:00,
2013-07-25 05:33:00,59.2,40.6,23.62,NNW,342,0.0,0.0,50,0.00,,---,0.28,VWS V14.00,2013-07-25 12:33:00,
2013-07-25 05:38:00,59.2,40.6,23.62,NW,325,0.0,0.0,50,0.00,,---,0.28,VWS V14.00,2013-07-25 12:38:00,
2013-07-25 05:43:00,59.2,40.6,23.62,WNW,303,0.0,0.0,50,0.00,,---,0.28,VWS V14.00,2013-07-25 12:43:00,
2013-07-25 05:49:00,59.2,41.1,23.62,NNW,345,0.0,0.0,51,0.00,,---,0.28,VWS V14.00,2013-07-25 12:49:00,
2013-07-25 05:54:00,59.2,41.1,23.62,NNW,345,0.0,0.0,51,0.00,,---,0.28,VWS V14.00,2013-07-25 12:54:00,
2013-07-25 05:59:00,59.2,41.1,23.62,NNW,345,0.0,0.0,51,0.00,,---,0.28,VWS V14.00,2013-07-25 12:59:00,
2013-07-25 06:04:00,59.2,41.1,23.62,NNW,345,0.0,0.0,51,0.00,,---,0.28,VWS V14.00,2013-07-25 13:04:00,
2013-07-25 06:09:00,59.2,41.1,23.62,WNW,303,0.0,0.0,51,0.00,,---,0.28,VWS V14.00,2013-07-25 13:09:00,
2013-07-25 06:14:00,59.2,41.1,23.62,West,263,3.6,4.0,51,0.00,,---,0.28,VWS V14.00,2013-07-25 13:14:00,
2013-07-25 06:19:00,59.2,41.1,23.62,WNW,297,0.0,2.2,51,0.00,,---,0.28,VWS V14.00,2013-07-25 13:19:00,
2013-07-25 06:24:00,59.4,41.2,23.62,WNW,285,0.0,2.7,51,0.00,,---,0.28,VWS V14.00,2013-07-25 13:24:00,
2013-07-25 06:30:00,59.4,41.8,23.62,North,9,0.0,0.0,52,0.00,,---,0.28,VWS V14.00,2013-07-25 13:30:00,
2013-07-25 06:35:00,59.4,41.8,23.62,North,9,0.0,0.0,52,0.00,,---,0.28,VWS V14.00,2013-07-25 13:35:00,
2013-07-25 06:40:00,59.5,41.9,23.62,North,9,0.0,0.0,52,0.00,,---,0.28,VWS V14.00,2013-07-25 13:40:00,
2013-07-25 06:45:00,59.7,42.1,23.62,North,8,0.0,0.0,52,0.00,,---,0.28,VWS V14.00,2013-07-25 13:45:00,
2013-07-25 06:50:00,59.9,42.7,23.62,North,8,0.0,0.0,53,0.00,,---,0.28,VWS V14.00,2013-07-25 13:50:00,
2013-07-25 06:55:00,60.1,42.9,23.62,WSW,245,0.0,0.0,53,0.00,,---,0.28,VWS V14.00,2013-07-25 13:55:00,
2013-07-25 07:00:00,60.3,43.1,23.62,WNW,299,0.0,0.0,53,0.00,,---,0.28,VWS V14.00,2013-07-25 14:00:00,
2013-07-25 07:05:00,60.4,43.2,23.62,WNW,299,0.0,0.0,53,0.00,,---,0.28,VWS V14.00,2013-07-25 14:05:00,
2013-07-25 07:10:00,60.6,43.4,23.62,WNW,299,0.0,0.0,53,0.00,,---,0.28,VWS V14.00,2013-07-25 14:10:00,
2013-07-25 07:16:00,60.8,43.6,23.62,WSW,252,0.0,0.0,53,0.00,,---,0.28,VWS V14.00,2013-07-25 14:16:00,
2013-07-25 07:21:00,60.8,43.6,23.62,WSW,252,0.0,0.0,53,0.00,,---,0.28,VWS V14.00,2013-07-25 14:21:00,
2013-07-25 07:26:00,61.0,43.8,23.62,WSW,250,0.0,0.0,53,0.00,,---,0.28,VWS V14.00,2013-07-25 14:26:00,
2013-07-25 07:31:00,61.2,43.9,23.62,West,276,0.0,3.1,53,0.00,,---,0.28,VWS V14.00,2013-07-25 14:31:00,
2013-07-25 07:36:00,61.3,44.1,23.62,WNW,293,0.0,2.7,53,0.00,,---,0.28,VWS V14.00,2013-07-25 14:36:00,
2013-07-25 07:41:00,61.7,44.9,23.62,WNW,290,0.0,3.1,54,0.00,,---,0.28,VWS V14.00,2013-07-25 14:41:00,
2013-07-25 07:46:00,61.9,45.1,23.62,WNW,283,0.0,0.0,54,0.00,,---,0.28,VWS V14.00,2013-07-25 14:46:00,
2013-07-25 07:51:00,62.2,45.4,23.62,WNW,299,2.2,2.2,54,0.00,,---,0.28,VWS V14.00,2013-07-25 14:51:00,
2013-07-25 07:56:00,62.4,45.6,23.62,SW,226,0.0,2.7,54,0.00,,---,0.28,VWS V14.00,2013-07-25 14:56:00,
2013-07-25 08:01:00,62.6,45.7,23.62,West,266,0.0,0.0,54,0.00,,---,0.28,VWS V14.00,2013-07-25 15:01:00,
2013-07-25 08:06:00,63.0,46.1,23.62,SW,221,0.0,0.0,54,0.00,,---,0.28,VWS V14.00,2013-07-25 15:06:00,
2013-07-25 08:12:00,63.1,46.2,23.62,SW,223,2.2,2.7,54,0.00,,---,0.28,VWS V14.00,2013-07-25 15:12:00,
2013-07-25 08:17:00,63.3,46.4,23.62,West,280,2.2,4.9,54,0.00,,---,0.28,VWS V14.00,2013-07-25 15:17:00,
2013-07-25 08:22:00,63.7,46.7,23.62,West,275,0.0,0.0,54,0.00,,---,0.28,VWS V14.00,2013-07-25 15:22:00,
2013-07-25 08:27:00,63.9,46.9,23.62,WSW,248,0.0,0.0,54,0.00,,---,0.28,VWS V14.00,2013-07-25 15:27:00,
2013-07-25 08:32:00,64.2,47.2,23.62,SW,226,0.0,0.0,54,0.00,,---,0.28,VWS V14.00,2013-07-25 15:32:00,
2013-07-25 08:37:00,64.4,47.4,23.62,NW,308,0.0,0.0,54,0.00,,---,0.28,VWS V14.00,2013-07-25 15:37:00,
2013-07-25 08:42:00,64.8,47.8,23.62,NW,310,0.0,0.0,54,0.00,,---,0.28,VWS V14.00,2013-07-25 15:42:00,
2013-07-25 08:47:00,64.9,47.9,23.62,WNW,295,0.0,0.0,54,0.00,,---,0.28,VWS V14.00,2013-07-25 15:47:00,
2013-07-25 08:52:00,65.3,48.2,23.62,North,0,0.0,0.0,54,0.00,,---,0.28,VWS V14.00,2013-07-25 15:52:00,
2013-07-25 08:58:00,65.7,48.6,23.62,West,270,0.0,0.0,54,0.00,,---,0.28,VWS V14.00,2013-07-25 15:58:00,
2013-07-25 09:03:00,65.8,48.8,23.62,North,0,0.0,0.0,54,0.00,,---,0.28,VWS V14.00,2013-07-25 16:03:00,
2013-07-25 09:08:00,66.0,48.4,23.62,SW,235,2.7,3.6,53,0.00,,---,0.28,VWS V14.00,2013-07-25 16:08:00,
2013-07-25 09:13:00,66.2,48.1,23.62,WNW,282,3.6,3.6,52,0.00,,---,0.28,VWS V14.00,2013-07-25 16:13:00,
2013-07-25 09:18:00,66.4,48.2,23.62,ENE,70,0.0,0.0,52,0.00,,---,0.28,VWS V14.00,2013-07-25 16:18:00,
2013-07-25 09:23:00,66.9,48.7,23.62,NNE,16,2.7,2.7,52,0.00,,---,0.28,VWS V14.00,2013-07-25 16:23:00,
2013-07-25 09:28:00,67.1,48.4,23.62,NW,314,0.0,3.6,51,0.00,,---,0.28,VWS V14.00,2013-07-25 16:28:00,
2013-07-25 09:33:00,67.3,48.0,23.65,NW,310,0.0,2.2,50,0.00,,---,0.28,VWS V14.00,2013-07-25 16:33:00,
2013-07-25 09:39:00,67.5,47.1,23.65,NW,315,0.0,3.6,48,0.00,,---,0.28,VWS V14.00,2013-07-25 16:39:00,
2013-07-25 09:44:00,67.6,46.1,23.65,SW,232,0.0,0.0,46,0.00,,---,0.28,VWS V14.00,2013-07-25 16:44:00,
2013-07-25 09:49:00,67.8,45.7,23.65,SW,232,0.0,0.0,45,0.00,,---,0.28,VWS V14.00,2013-07-25 16:49:00,
2013-07-25 09:54:00,68.2,44.9,23.65,NW,308,5.8,5.8,43,0.00,,---,0.28,VWS V14.00,2013-07-25 16:54:00,
2013-07-25 09:59:00,68.4,43.8,23.65,WNW,294,3.1,4.9,41,0.00,,---,0.28,VWS V14.00,2013-07-25 16:59:00,
2013-07-25 10:04:00,68.5,42.6,23.65,West,280,2.2,2.7,39,0.00,,---,0.28,VWS V14.00,2013-07-25 17:04:00,
2013-07-25 10:09:00,68.9,41.6,23.65,NW,324,2.7,3.1,37,0.00,,---,0.28,VWS V14.00,2013-07-25 17:09:00,
2013-07-25 10:14:00,69.1,41.0,23.65,NW,316,0.0,3.1,36,0.00,,---,0.28,VWS V14.00,2013-07-25 17:14:00,
2013-07-25 10:19:00,69.4,40.6,23.65,WNW,285,3.1,4.0,35,0.00,,---,0.28,VWS V14.00,2013-07-25 17:19:00,
2013-07-25 10:24:00,69.6,40.0,23.65,West,266,2.7,2.7,34,0.00,,---,0.28,VWS V14.00,2013-07-25 17:24:00,
2013-07-25 10:29:00,69.8,39.4,23.65,WSW,253,0.0,0.0,33,0.00,,---,0.28,VWS V14.00,2013-07-25 17:29:00,
2013-07-25 10:34:00,70.0,39.6,23.65,NNE,16,0.0,0.0,33,0.00,,---,0.28,VWS V14.00,2013-07-25 17:34:00,
2013-07-25 10:39:00,70.7,40.2,23.65,WNW,294,0.0,0.0,33,0.00,,---,0.28,VWS V14.00,2013-07-25 17:39:00,
2013-07-25 10:44:00,71.1,40.5,23.65,SSW,201,3.6,3.6,33,0.00,,---,0.28,VWS V14.00,2013-07-25 17:44:00,
2013-07-25 10:50:00,71.6,40.2,23.65,WSW,257,4.0,4.0,32,0.00,,---,0.28,VWS V14.00,2013-07-25 17:50:00,
2013-07-25 10:55:00,72.0,40.5,23.65,North,11,2.7,3.6,32,0.00,,---,0.28,VWS V14.00,2013-07-25 17:55:00,
2013-07-25 11:00:00,72.5,41.0,23.65,SE,142,3.6,4.0,32,0.00,,---,0.28,VWS V14.00,2013-07-25 18:00:00,
2013-07-25 11:05:00,73.0,41.5,23.65,SSE,161,0.0,0.0,32,0.00,,---,0.28,VWS V14.00,2013-07-25 18:05:00,
2013-07-25 11:10:00,73.4,41.8,23.65,SSE,161,2.2,2.7,32,0.00,,---,0.28,VWS V14.00,2013-07-25 18:10:00,
2013-07-25 11:15:00,73.8,42.1,23.65,SSW,208,2.7,2.7,32,0.00,,---,0.28,VWS V14.00,2013-07-25 18:15:00,
2013-07-25 11:20:00,73.8,42.1,23.65,SSE,149,0.0,0.0,32,0.00,,---,0.28,VWS V14.00,2013-07-25 18:20:00,
2013-07-25 11:25:00,73.6,41.9,23.65,WNW,287,0.0,0.0,32,0.00,,---,0.28,VWS V14.00,2013-07-25 18:25:00,
2013-07-25 11:30:00,73.2,41.6,23.65,NNW,329,0.0,0.0,32,0.00,,---,0.28,VWS V14.00,2013-07-25 18:30:00,
2013-07-25 11:35:00,72.5,41.0,23.65,NW,318,7.6,7.6,32,0.00,,---,0.28,VWS V14.00,2013-07-25 18:35:00,
2013-07-25 11:36:00,72.3,40.8,23.65,NW,305,3.6,4.9,32,0.00,,---,0.28,VWS V14.00,2013-07-25 18:36:00,
2013-07-25 11:41:00,71.4,40.0,23.65,NNE,27,3.1,3.6,32,0.00,,---,0.28,VWS V14.00,2013-07-25 18:41:00,
2013-07-25 11:47:00,70.0,38.8,23.65,North,357,2.7,3.1,32,0.00,,---,0.28,VWS V14.00,2013-07-25 18:47:00,
2013-07-25 11:52:00,67.6,37.5,23.65,WNW,283,3.6,4.0,33,0.04,,---,0.31,VWS V14.00,2013-07-25 18:52:00,
2013-07-25 11:57:00,66.2,36.3,23.65,NW,320,0.0,4.9,33,0.12,,---,0.39,VWS V14.00,2013-07-25 18:57:00,
2013-07-25 12:02:00,64.9,35.9,23.65,WSW,249,2.7,2.7,34,0.20,,---,0.47,VWS V14.00,2013-07-25 19:02:00,
2013-07-25 12:07:00,63.5,35.4,23.65,SE,135,2.7,2.7,35,0.24,,---,0.51,VWS V14.00,2013-07-25 19:07:00,
2013-07-25 12:12:00,62.8,34.8,23.65,West,263,0.0,0.0,35,0.39,,---,0.67,VWS V14.00,2013-07-25 19:12:00,
2013-07-25 12:17:00,62.2,35.0,23.68,SE,144,6.3,6.3,36,0.43,,---,0.71,VWS V14.00,2013-07-25 19:17:00,
2013-07-25 12:23:00,61.0,33.9,23.68,South,180,0.0,0.0,36,0.51,,---,0.79,VWS V14.00,2013-07-25 19:23:00,
2013-07-25 12:28:00,59.7,33.4,23.68,South,187,0.0,0.0,37,0.67,,---,0.94,VWS V14.00,2013-07-25 19:28:00,
2013-07-25 12:33:00,58.8,33.3,23.65,SE,145,0.0,0.0,38,0.71,,---,0.98,VWS V14.00,2013-07-25 19:33:00,
2013-07-25 12:38:00,58.5,33.0,23.65,SE,145,0.0,0.0,38,0.71,,---,0.98,VWS V14.00,2013-07-25 19:38:00,
2013-07-25 12:43:00,58.5,33.6,23.65,SE,145,0.0,0.0,39,0.71,,---,0.98,VWS V14.00,2013-07-25 19:43:00,
2013-07-25 12:48:00,58.5,34.2,23.68,North,9,0.0,0.0,40,0.67,,---,0.98,VWS V14.00,2013-07-25 19:48:00,
2013-07-25 12:53:00,58.6,35.0,23.68,North,349,0.0,0.0,41,0.67,,---,0.98,VWS V14.00,2013-07-25 19:53:00,
2013-07-25 12:59:00,58.8,35.8,23.68,North,349,0.0,0.0,42,0.59,,---,0.98,VWS V14.00,2013-07-25 19:59:00,
2013-07-25 13:04:00,58.8,35.8,23.65,North,349,0.0,0.0,42,0.51,,---,0.98,VWS V14.00,2013-07-25 20:04:00,
2013-07-25 13:09:00,59.0,36.0,23.65,NNW,339,0.0,0.0,42,0.51,,---,1.02,VWS V14.00,2013-07-25 20:09:00,
2013-07-25 13:14:00,59.2,36.7,23.65,NNW,339,0.0,0.0,43,0.35,,---,1.02,VWS V14.00,2013-07-25 20:14:00,
2013-07-25 13:19:00,59.4,36.9,23.65,WNW,292,2.7,4.0,43,0.31,,---,1.02,VWS V14.00,2013-07-25 20:19:00,
2013-07-25 13:24:00,59.0,36.6,23.65,North,0,0.0,0.0,43,0.20,,---,1.02,VWS V14.00,2013-07-25 20:24:00,
2013-07-25 13:29:00,59.0,37.1,23.65,North,0,0.0,0.0,44,0.08,,---,1.02,VWS V14.00,2013-07-25 20:29:00,
2013-07-25 13:34:00,59.0,37.1,23.68,North,0,0.0,0.0,44,0.04,,---,1.02,VWS V14.00,2013-07-25 20:34:00,
2013-07-25 13:39:00,59.0,37.1,23.68,North,0,0.0,0.0,44,0.04,,---,1.02,VWS V14.00,2013-07-25 20:39:00,
2013-07-25 13:44:00,58.8,37.5,23.68,NNW,343,0.0,2.7,45,0.04,,---,1.02,VWS V14.00,2013-07-25 20:44:00,
2013-07-25 13:49:00,58.8,37.5,23.65,WNW,301,0.0,0.0,45,0.04,,---,1.02,VWS V14.00,2013-07-25 20:49:00,
2013-07-25 13:54:00,58.8,37.5,23.65,WNW,301,0.0,0.0,45,0.04,,---,1.02,VWS V14.00,2013-07-25 20:54:00,
2013-07-25 14:00:00,59.0,37.7,23.65,NW,321,2.2,3.1,45,0.04,,---,1.02,VWS V14.00,2013-07-25 21:00:00,
2013-07-25 14:05:00,58.8,38.1,23.65,WNW,293,0.0,2.2,46,0.04,,---,1.02,VWS V14.00,2013-07-25 21:05:00,
2013-07-25 14:10:00,59.0,37.7,23.65,WNW,293,0.0,0.0,45,0.00,,---,1.02,VWS V14.00,2013-07-25 21:10:00,
2013-07-25 14:15:00,59.2,38.4,23.65,WNW,293,0.0,0.0,46,0.00,,---,1.02,VWS V14.00,2013-07-25 21:15:00,
2013-07-25 14:20:00,59.4,38.6,23.65,WNW,293,0.0,0.0,46,0.00,,---,1.02,VWS V14.00,2013-07-25 21:20:00,
2013-07-25 14:25:00,59.4,38.6,23.65,WNW,293,0.0,0.0,46,0.00,,---,1.02,VWS V14.00,2013-07-25 21:25:00,
2013-07-25 14:30:00,59.5,39.3,23.65,WNW,293,0.0,0.0,47,0.00,,---,1.02,VWS V14.00,2013-07-25 21:30:00,
2013-07-25 14:36:00,59.7,39.5,23.65,SW,224,0.0,0.0,47,0.00,,---,1.02,VWS V14.00,2013-07-25 21:36:00,
2013-07-25 14:41:00,59.9,39.6,23.65,SW,224,0.0,0.0,47,0.00,,---,1.02,VWS V14.00,2013-07-25 21:41:00,
2013-07-25 14:47:00,60.3,40.5,23.62,SW,224,0.0,0.0,48,0.00,,---,1.02,VWS V14.00,2013-07-25 21:47:00,
2013-07-25 14:52:00,60.4,40.7,23.62,SW,224,0.0,0.0,48,0.00,,---,1.02,VWS V14.00,2013-07-25 21:52:00,
2013-07-25 14:57:00,60.6,40.8,23.62,SW,224,0.0,0.0,48,0.00,,---,1.02,VWS V14.00,2013-07-25 21:57:00,
2013-07-25 15:02:00,60.8,41.0,23.62,SW,224,0.0,0.0,48,0.00,,---,1.02,VWS V14.00,2013-07-25 22:02:00,
2013-07-25 15:07:00,61.0,41.2,23.62,SW,225,0.0,0.0,48,0.00,,---,1.02,VWS V14.00,2013-07-25 22:07:00,
2013-07-25 15:12:00,61.3,42.0,23.62,SW,224,0.0,0.0,49,0.00,,---,1.02,VWS V14.00,2013-07-25 22:12:00,
2013-07-25 15:18:00,61.5,42.2,23.65,SW,225,0.0,0.0,49,0.00,,---,1.02,VWS V14.00,2013-07-25 22:18:00,
2013-07-25 15:23:00,61.9,42.5,23.65,SW,225,0.0,0.0,49,0.00,,---,1.02,VWS V14.00,2013-07-25 22:23:00,
2013-07-25 15:28:00,61.9,43.1,23.65,SW,224,0.0,0.0,50,0.00,,---,1.02,VWS V14.00,2013-07-25 22:28:00,
2013-07-25 15:33:00,62.1,43.2,23.65,NNW,329,2.7,2.7,50,0.00,,---,1.02,VWS V14.00,2013-07-25 22:33:00,
2013-07-25 15:38:00,62.1,43.2,23.65,WNW,294,0.0,0.0,50,0.00,,---,1.02,VWS V14.00,2013-07-25 22:38:00,
2013-07-25 15:43:00,62.2,43.4,23.65,WNW,300,0.0,0.0,50,0.00,,---,1.02,VWS V14.00,2013-07-25 22:43:00,
2013-07-25 15:48:00,62.2,43.4,23.65,WNW,300,0.0,0.0,50,0.00,,---,1.02,VWS V14.00,2013-07-25 22:48:00,
2013-07-25 15:53:00,62.2,43.4,23.65,WNW,300,0.0,0.0,50,0.00,,---,1.02,VWS V14.00,2013-07-25 22:53:00,
2013-07-25 15:59:00,62.2,43.4,23.65,WNW,300,0.0,0.0,50,0.00,,---,1.02,VWS V14.00,2013-07-25 22:59:00,
2013-07-25 16:04:00,62.2,43.4,23.62,WNW,300,0.0,0.0,50,0.00,,---,1.02,VWS V14.00,2013-07-25 23:04:00,
2013-07-25 16:09:00,62.2,43.4,23.62,WNW,300,0.0,0.0,50,0.00,,---,1.02,VWS V14.00,2013-07-25 23:09:00,
2013-07-25 16:14:00,62.2,43.4,23.62,WNW,300,0.0,0.0,50,0.00,,---,1.02,VWS V14.00,2013-07-25 23:14:00,
2013-07-25 16:19:00,62.2,43.4,23.65,WNW,300,0.0,0.0,50,0.00,,---,1.02,VWS V14.00,2013-07-25 23:19:00,
2013-07-25 16:25:00,62.2,43.4,23.65,WNW,300,0.0,0.0,50,0.00,,---,1.02,VWS V14.00,2013-07-25 23:25:00,
2013-07-25 16:30:00,62.2,43.4,23.65,WNW,291,0.0,0.0,50,0.00,,---,1.02,VWS V14.00,2013-07-25 23:30:00,
2013-07-25 16:35:00,62.2,43.4,23.65,WNW,291,0.0,0.0,50,0.00,,---,1.02,VWS V14.00,2013-07-25 23:35:00,
2013-07-25 16:40:00,62.1,43.7,23.65,WNW,291,0.0,0.0,51,0.00,,---,1.02,VWS V14.00,2013-07-25 23:40:00,
2013-07-25 16:45:00,62.1,43.7,23.65,WNW,291,0.0,0.0,51,0.00,,---,1.02,VWS V14.00,2013-07-25 23:45:00,
2013-07-25 16:50:00,62.1,43.7,23.65,WNW,292,0.0,0.0,51,0.00,,---,1.02,VWS V14.00,2013-07-25 23:50:00,
2013-07-25 16:55:00,62.1,43.7,23.65,WNW,293,0.0,0.0,51,0.00,,---,1.02,VWS V14.00,2013-07-25 23:55:00,
2013-07-25 17:00:00,62.2,43.9,23.65,WNW,293,0.0,0.0,51,0.00,,---,1.02,VWS V14.00,2013-07-26 00:00:00,
2013-07-25 17:05:00,62.2,43.9,23.65,WNW,293,0.0,0.0,51,0.00,,---,1.02,VWS V14.00,2013-07-26 00:05:00,
2013-07-25 17:10:00,62.2,44.4,23.65,WNW,293,0.0,0.0,52,0.00,,---,1.02,VWS V14.00,2013-07-26 00:10:00,
2013-07-25 17:16:00,62.1,44.2,23.65,WNW,293,0.0,0.0,52,0.00,,---,1.02,VWS V14.00,2013-07-26 00:16:00,
2013-07-25 17:21:00,62.1,44.2,23.65,WNW,293,0.0,0.0,52,0.00,,---,1.02,VWS V14.00,2013-07-26 00:21:00,
2013-07-25 17:26:00,62.1,44.2,23.65,WNW,293,0.0,0.0,52,0.00,,---,1.02,VWS V14.00,2013-07-26 00:26:00,
2013-07-25 17:31:00,62.1,44.2,23.65,NW,311,0.0,0.0,52,0.00,,---,1.02,VWS V14.00,2013-07-26 00:31:00,
2013-07-25 17:36:00,62.1,44.2,23.65,NW,311,0.0,0.0,52,0.00,,---,1.02,VWS V14.00,2013-07-26 00:36:00,
2013-07-25 17:41:00,62.1,44.2,23.65,NW,311,0.0,0.0,52,0.00,,---,1.02,VWS V14.00,2013-07-26 00:41:00,
2013-07-25 17:46:00,62.1,44.2,23.65,NW,311,0.0,0.0,52,0.00,,---,1.02,VWS V14.00,2013-07-26 00:46:00,
2013-07-25 17:51:00,62.1,44.2,23.65,NW,311,0.0,0.0,52,0.00,,---,1.02,VWS V14.00,2013-07-26 00:51:00,
2013-07-25 17:56:00,61.9,44.1,23.65,NW,311,0.0,0.0,52,0.00,,---,1.02,VWS V14.00,2013-07-26 00:56:00,
2013-07-25 18:02:00,61.9,44.1,23.65,NW,311,0.0,0.0,52,0.00,,---,1.02,VWS V14.00,2013-07-26 01:02:00,
2013-07-25 18:07:00,61.9,44.1,23.65,NW,311,0.0,0.0,52,0.00,,---,1.02,VWS V14.00,2013-07-26 01:07:00,
2013-07-25 18:12:00,61.7,43.9,23.65,NW,311,0.0,0.0,52,0.00,,---,1.02,VWS V14.00,2013-07-26 01:12:00,
2013-07-25 18:17:00,61.7,43.9,23.65,NW,311,0.0,0.0,52,0.00,,---,1.02,VWS V14.00,2013-07-26 01:17:00,
2013-07-25 18:22:00,61.7,44.4,23.65,NW,311,0.0,0.0,53,0.00,,---,1.02,VWS V14.00,2013-07-26 01:22:00,
2013-07-25 18:27:00,61.7,44.4,23.65,NW,311,0.0,0.0,53,0.00,,---,1.02,VWS V14.00,2013-07-26 01:27:00,
2013-07-25 18:32:00,61.7,44.4,23.65,NW,311,0.0,0.0,53,0.00,,---,1.02,VWS V14.00,2013-07-26 01:32:00,
2013-07-25 18:38:00,61.7,44.4,23.65,NW,311,0.0,0.0,53,0.00,,---,1.02,VWS V14.00,2013-07-26 01:38:00,
2013-07-25 18:43:00,61.5,44.2,23.65,NW,311,0.0,0.0,53,0.00,,---,1.02,VWS V14.00,2013-07-26 01:43:00,
2013-07-25 18:48:00,61.5,44.2,23.65,NW,311,0.0,0.0,53,0.00,,---,1.02,VWS V14.00,2013-07-26 01:48:00,
2013-07-25 18:53:00,61.5,44.2,23.65,NW,311,0.0,0.0,53,0.00,,---,1.02,VWS V14.00,2013-07-26 01:53:00,
2013-07-25 18:58:00,61.5,44.2,23.65,NW,311,0.0,0.0,53,0.00,,---,1.02,VWS V14.00,2013-07-26 01:58:00,
2013-07-25 19:04:00,61.5,44.2,23.65,NW,311,0.0,0.0,53,0.00,,---,1.02,VWS V14.00,2013-07-26 02:04:00,
2013-07-25 19:09:00,61.5,44.7,23.65,NW,311,0.0,0.0,54,0.00,,---,1.02,VWS V14.00,2013-07-26 02:09:00,
2013-07-25 19:14:00,61.3,44.6,23.65,NW,311,0.0,0.0,54,0.00,,---,1.02,VWS V14.00,2013-07-26 02:14:00,
2013-07-25 19:19:00,61.3,44.6,23.65,NW,311,0.0,0.0,54,0.00,,---,1.02,VWS V14.00,2013-07-26 02:19:00,
2013-07-25 19:24:00,61.3,44.6,23.65,NW,311,0.0,0.0,54,0.00,,---,1.02,VWS V14.00,2013-07-26 02:24:00,
2013-07-25 19:29:00,61.2,44.4,23.65,NW,311,0.0,0.0,54,0.00,,---,1.02,VWS V14.00,2013-07-26 02:29:00,
2013-07-25 19:34:00,61.2,44.4,23.65,NW,311,0.0,0.0,54,0.00,,---,1.02,VWS V14.00,2013-07-26 02:34:00,
2013-07-25 19:39:00,61.2,44.4,23.65,NW,311,0.0,0.0,54,0.00,,---,1.02,VWS V14.00,2013-07-26 02:39:00,
2013-07-25 19:45:00,61.2,44.4,23.65,NW,311,0.0,0.0,54,0.00,,---,1.02,VWS V14.00,2013-07-26 02:45:00,
2013-07-25 19:50:00,61.0,44.2,23.65,NW,311,0.0,0.0,54,0.00,,---,1.02,VWS V14.00,2013-07-26 02:50:00,
2013-07-25 19:55:00,61.0,44.2,23.65,ENE,70,0.0,0.0,54,0.00,,---,1.02,VWS V14.00,2013-07-26 02:55:00,
2013-07-25 20:00:00,61.0,44.2,23.68,ENE,70,0.0,0.0,54,0.00,,---,1.02,VWS V14.00,2013-07-26 03:00:00,
2013-07-25 20:05:00,61.0,44.2,23.68,ENE,70,0.0,0.0,54,0.00,,---,1.02,VWS V14.00,2013-07-26 03:05:00,
2013-07-25 20:10:00,60.8,44.1,23.68,ENE,70,0.0,0.0,54,0.00,,---,1.02,VWS V14.00,2013-07-26 03:10:00,
2013-07-25 20:15:00,60.8,44.5,23.68,ENE,70,0.0,0.0,55,0.00,,---,1.02,VWS V14.00,2013-07-26 03:15:00,
2013-07-25 20:20:00,60.8,44.5,23.68,ENE,70,0.0,0.0,55,0.00,,---,1.02,VWS V14.00,2013-07-26 03:20:00,
2013-07-25 20:25:00,60.8,44.5,23.68,ENE,70,0.0,0.0,55,0.00,,---,1.02,VWS V14.00,2013-07-26 03:25:00,
2013-07-25 20:30:00,60.8,44.5,23.65,ENE,78,0.0,0.0,55,0.00,,---,1.02,VWS V14.00,2013-07-26 03:30:00,
2013-07-25 20:35:00,60.6,44.4,23.65,NE,48,0.0,0.0,55,0.00,,---,1.02,VWS V14.00,2013-07-26 03:35:00,
2013-07-25 20:40:00,60.6,44.4,23.65,WNW,301,0.0,2.7,55,0.00,,---,1.02,VWS V14.00,2013-07-26 03:40:00,
2013-07-25 20:46:00,60.6,44.4,23.65,WNW,301,0.0,0.0,55,0.00,,---,1.02,VWS V14.00,2013-07-26 03:46:00,
2013-07-25 20:51:00,60.4,44.2,23.65,NW,308,0.0,2.7,55,0.00,,---,1.02,VWS V14.00,2013-07-26 03:51:00,
2013-07-25 20:56:00,60.4,44.2,23.65,NW,311,0.0,0.0,55,0.00,,---,1.02,VWS V14.00,2013-07-26 03:56:00,
2013-07-25 21:01:00,60.4,44.2,23.65,NW,311,0.0,0.0,55,0.00,,---,1.02,VWS V14.00,2013-07-26 04:01:00,
2013-07-25 21:03:00,60.4,44.2,23.65,NW,311,0.0,0.0,55,0.00,,---,1.02,VWS V14.00,2013-07-26 04:03:00,
2013-07-25 21:04:00,60.4,44.2,23.65,NW,311,0.0,0.0,55,0.00,,---,1.02,VWS V14.00,2013-07-26 04:04:00,
2013-07-25 21:10:00,60.4,44.7,23.65,WSW,245,0.0,0.0,56,0.00,,---,1.02,VWS V14.00,2013-07-26 04:10:00,
2013-07-25 21:15:00,60.4,44.7,23.65,WSW,245,0.0,0.0,56,0.00,,---,1.02,VWS V14.00,2013-07-26 04:15:00,
2013-07-25 21:20:00,60.3,44.5,23.65,WSW,245,0.0,0.0,56,0.00,,---,1.02,VWS V14.00,2013-07-26 04:20:00,
2013-07-25 21:25:00,60.3,44.5,23.65,WSW,245,0.0,0.0,56,0.00,,---,1.02,VWS V14.00,2013-07-26 04:25:00,
2013-07-25 21:30:00,60.3,44.5,23.68,WSW,245,0.0,0.0,56,0.00,,---,1.02,VWS V14.00,2013-07-26 04:30:00,
2013-07-25 21:35:00,60.3,44.5,23.68,WSW,245,0.0,0.0,56,0.00,,---,1.02,VWS V14.00,2013-07-26 04:35:00,
2013-07-25 21:41:00,60.3,44.5,23.68,WSW,245,0.0,0.0,56,0.00,,---,1.02,VWS V14.00,2013-07-26 04:41:00,
2013-07-25 21:46:00,60.3,44.5,23.68,WSW,245,0.0,0.0,56,0.00,,---,1.02,VWS V14.00,2013-07-26 04:46:00,
2013-07-25 21:51:00,60.3,44.5,23.68,WSW,245,0.0,0.0,56,0.00,,---,1.02,VWS V14.00,2013-07-26 04:51:00,
2013-07-25 21:56:00,60.3,44.5,23.68,WSW,245,0.0,0.0,56,0.00,,---,1.02,VWS V14.00,2013-07-26 04:56:00,
2013-07-25 22:01:00,60.3,44.5,23.68,WSW,245,0.0,0.0,56,0.00,,---,1.02,VWS V14.00,2013-07-26 05:01:00,
2013-07-25 22:06:00,60.3,44.5,23.68,WSW,245,0.0,0.0,56,0.00,,---,1.02,VWS V14.00,2013-07-26 05:06:00,
2013-07-25 22:11:00,60.3,45.0,23.68,WSW,245,0.0,0.0,57,0.00,,---,1.02,VWS V14.00,2013-07-26 05:11:00,
2013-07-25 22:16:00,60.3,45.0,23.68,WSW,245,0.0,0.0,57,0.00,,---,1.02,VWS V14.00,2013-07-26 05:16:00,
2013-07-25 22:22:00,60.3,45.0,23.68,WSW,245,0.0,0.0,57,0.00,,---,1.02,VWS V14.00,2013-07-26 05:22:00,
2013-07-25 22:27:00,60.3,45.0,23.68,WSW,245,0.0,0.0,57,0.00,,---,1.02,VWS V14.00,2013-07-26 05:27:00,
2013-07-25 22:32:00,60.3,45.0,23.68,WSW,245,0.0,0.0,57,0.00,,---,1.02,VWS V14.00,2013-07-26 05:32:00,
2013-07-25 22:37:00,60.3,45.0,23.68,WSW,245,0.0,0.0,57,0.00,,---,1.02,VWS V14.00,2013-07-26 05:37:00,
2013-07-25 22:42:00,60.3,45.0,23.68,WSW,245,0.0,0.0,57,0.00,,---,1.02,VWS V14.00,2013-07-26 05:42:00,
2013-07-25 22:47:00,60.3,45.0,23.68,WSW,245,0.0,0.0,57,0.00,,---,1.02,VWS V14.00,2013-07-26 05:47:00,
2013-07-25 22:52:00,60.3,45.0,23.68,WSW,245,0.0,0.0,57,0.00,,---,1.02,VWS V14.00,2013-07-26 05:52:00,
2013-07-25 22:57:00,60.3,45.0,23.68,WSW,245,0.0,0.0,57,0.00,,---,1.02,VWS V14.00,2013-07-26 05:57:00,
2013-07-25 23:02:00,60.3,45.0,23.65,WSW,245,0.0,0.0,57,0.00,,---,1.02,VWS V14.00,2013-07-26 06:02:00,
2013-07-25 23:07:00,60.1,44.8,23.65,WSW,245,0.0,0.0,57,0.00,,---,1.02,VWS V14.00,2013-07-26 06:07:00,
2013-07-25 23:13:00,60.1,44.8,23.65,West,261,0.0,0.0,57,0.00,,---,1.02,VWS V14.00,2013-07-26 06:13:00,
2013-07-25 23:18:00,60.1,44.8,23.68,West,261,0.0,0.0,57,0.00,,---,1.02,VWS V14.00,2013-07-26 06:18:00,
2013-07-25 23:23:00,59.9,44.7,23.68,West,261,0.0,0.0,57,0.00,,---,1.02,VWS V14.00,2013-07-26 06:23:00,
2013-07-25 23:28:00,59.9,44.7,23.68,West,261,0.0,0.0,57,0.00,,---,1.02,VWS V14.00,2013-07-26 06:28:00,
2013-07-25 23:33:00,59.9,44.7,23.68,West,261,0.0,0.0,57,0.00,,---,1.02,VWS V14.00,2013-07-26 06:33:00,
2013-07-25 23:38:00,59.9,44.7,23.68,West,261,0.0,0.0,57,0.00,,---,1.02,VWS V14.00,2013-07-26 06:38:00,
2013-07-25 23:43:00,59.7,44.5,23.68,West,261,0.0,0.0,57,0.00,,---,1.02,VWS V14.00,2013-07-26 06:43:00,
2013-07-25 23:48:00,59.7,44.5,23.68,West,261,0.0,0.0,57,0.00,,---,1.02,VWS V14.00,2013-07-26 06:48:00,
2013-07-25 23:54:00,59.5,44.3,23.68,West,261,0.0,0.0,57,0.00,,---,1.02,VWS V14.00,2013-07-26 06:54:00,
2013-07-25 23:59:00,59.5,44.3,23.68,West,261,0.0,0.0,57,0.00,,---,1.02,VWS V14.00,2013-07-26 06:59:00,